Flag for U.S.A. Weather past 2 weeks in Binghamton, New York, U.S.A.

Now
77 °F

Scattered clouds.


Feels Like: 79 °F
Forecast: 66 / 84 °F
Wind: 9 mph from Southwest

Location: Binghamton Regional Airport

Current Time: Aug 3, 2015 at 3:19:44 PM

Latest Report: Aug 3, 2015 at 2:53 PM


Visibility: 10 mi

Pressure: 29.78 "Hg

Humidity: 54%

Dew point: 59 °F

Location of BinghamtonLocation

Historic Weather in Binghamton — Graph

°F

Binghamton temperature yesterday

Maximum temperature yesterday: 78 °F (at 3:53 PM)
Minimum temperature yesterday: 58 °F (at 4:53 AM)
Average temperature yesterday: 69 °F

Past Weeks' High & Low Weather Summary

 TemperatureHumidityPressure
High85 °F (Jul 28, 3:53 PM)100% (Jul 26, 6:53 AM)30.08 "Hg (Jul 26, 6:53 AM)
Low53 °F (Jul 22, 5:53 AM)41% (Jul 23, 2:53 PM)29.64 "Hg (Jul 21, 12:53 PM)
Average70 °F69%29.89 "Hg
* Reported Jul 19 1:53 PM — Aug 3 1:53 PM, Binghamton, Weather by CustomWeather, © 2015

Note: Actual official high and low records may vary slightly from our data, if they occured in-between our weather recording intervals... More about our weather records

Advertising

Binghamton weather history for previous 24 hours

 ConditionsComfort  
Time TempWeatherWind HumidityBarometerVisibility
1:53 PM
Mon, Aug 3
78 °FPartly sunny.9 mph54%29.78 "Hg10 mi
12:53 PM74 °FLight rain. Cloudy.12 mph60%29.79 "Hg10 mi
11:53 AM76 °FBroken clouds.14 mph60%29.78 "Hg10 mi
10:53 AM76 °FSunny.12 mph60%29.76 "Hg10 mi
9:53 AM74 °FSunny.14 mph67%29.76 "Hg10 mi
8:53 AM71 °FSunny.12 mph71%29.77 "Hg10 mi
7:53 AM70 °FSunny.8 mph71%29.77 "Hg10 mi
6:53 AM68 °FClear.9 mph73%29.78 "Hg10 mi
5:53 AM66 °FClear.9 mph81%29.78 "Hg10 mi
4:53 AM67 °FClear.8 mph79%29.76 "Hg10 mi
3:53 AM68 °FClear.9 mph76%29.76 "Hg10 mi
2:53 AM68 °FClear.8 mph73%29.77 "Hg10 mi
1:53 AM68 °FClear.7 mph73%29.79 "Hg10 mi
12:53 AM69 °FClear.8 mph70%29.79 "Hg10 mi
11:53 PM
Sun, Aug 2
69 °FClear.8 mph70%29.81 "Hg10 mi
10:53 PM69 °FClear.5 mph70%29.84 "Hg10 mi
9:53 PM70 °FClear.7 mph66%29.84 "Hg10 mi
8:53 PM71 °FSunny.6 mph61%29.84 "Hg10 mi
7:53 PM73 °FSunny.7 mph59%29.86 "Hg10 mi
6:53 PM76 °FSunny.12 mph52%29.87 "Hg10 mi
5:53 PM77 °FSunny.8 mph50%29.86 "Hg10 mi
4:53 PM77 °FPassing clouds.8 mph50%29.86 "Hg10 mi
3:53 PM78 °FScattered clouds.12 mph45%29.88 "Hg10 mi
Weather by CustomWeather, © 2015

See weather overviewHow to use our weather pages